Regional Weather Roundup
Issued by NWS

Home | Current Version | Previous Version | Text Only | Print | Product List | Glossary On
Versions: 1 2 3 4 5 6 7 8 9 10 11 12 13 14 15 16 17 18 19 20 21 22 23 24 25 26 27 28 29 30 31 32 33 34 35 36 37 38 39 40 41 42 43 44 45 46 47 48 49 50
650
ASUS43 KMKX 030200
RWRWI

WISCONSIN REGIONAL WEATHER ROUNDUP
NATIONAL WEATHER SERVICE MILWAUKEE/SULLIVAN WI
900 PM CDT MON MAY 02 2016

NOTE: "FAIR" INDICATES FEW OR NO CLOUDS BELOW 12,000 FEET WITH NO
SIGNIFICANT WEATHER AND/OR OBSTRUCTIONS TO VISIBILITY.

WIZ001-002-006>008-014>016-023>028-030300-
NORTHWEST WISCONSIN

CITY           SKY/WX    TMP DP  RH WIND       PRES   REMARKS
SUPERIOR ARPT  CLEAR     40  35  79 NE3       29.99R
ASHLAND        CLEAR     42  40  92 CALM      29.99S
HAYWARD        CLEAR     51  36  56 CALM      29.98S
SIREN          CLEAR     56  33  41 SW5       29.98S
CUMBERLAND     CLEAR     54  36  50 SW6       29.99S
RICE LAKE      CLEAR     57  34  42 S5        30.01S
CHETEK         PTCLDY    54  36  50 SW3       29.99F
LADYSMITH      CLEAR     55  36  49 S3        30.00F
EAU CLAIRE     MOCLDY    57  35  43 SW3       30.00S
MENOMONIE      PTCLDY    58  33  38 CALM      30.01R
NEW RICHMOND   CLEAR     56  32  39 W3        30.01S
OSCEOLA        PTCLDY    56  36  46 S3        30.02F
$$

WIZ003>005-009-010-017-018-030300-
NORTH CENTRAL WISCONSIN

CITY           SKY/WX    TMP DP  RH WIND       PRES   REMARKS
MANITOWISH WTR CLEAR     49  34  56 CALM      29.99S
ARBOR VITAE    CLEAR     52  35  53 CALM      29.99S
WOODRUFF       CLEAR     52  35  53 CALM      29.99S
RHINELANDER    CLEAR     48  30  49 W3        29.99S
EAGLE RIVER    PTCLDY    49  32  50 CALM      29.98S
LAND O LAKES   CLEAR     48  33  57 CALM      30.00S
PHILLIPS       PTCLDY    51  35  56 CALM      29.99R
TOMAHAWK       CLEAR     50  34  53 CALM      30.00S
MEDFORD        MOCLDY    52  38  59 CALM      30.00S
MERRILL        PTCLDY    54  37  52 CALM      30.00S
$$

WIZ029-030-035-036-043>047-030300-
CENTRAL WISCONSIN

CITY           SKY/WX    TMP DP  RH WIND       PRES   REMARKS
WAUSAU         MOCLDY    58  34  40 W5        29.98S
MOSINEE        MOCLDY    55  32  41 W5        30.01S
MARSHFIELD     CLEAR     54  34  46 CALM      30.00S
STEVENS POINT  MOCLDY    56  33  42 CALM      30.00S
WAUPACA        PTCLDY    56  33  41 CALM      30.00S
WAUTOMA        CLEAR     51  36  56 CALM      30.01R
WISC RAPIDS    CLEAR     51  33  50 CALM      30.02R
CAMP DOUGLAS   NOT AVBL
$$

WIZ011>013-019>022-031-037>040-048>050-030300-
NORTHEAST WISCONSIN

CITY           SKY/WX    TMP DP  RH WIND       PRES   REMARKS
ANTIGO         CLOUDY    49  39  67 CALM      29.99S
SHAWANO        CLOUDY    59  33  38 S7        29.99S
OCONTO         CLEAR     51  38  60 SE3       30.00S
STURGEON BAY   CLEAR     48  32  53 CALM      30.03S
GREEN BAY      CLEAR     54  36  50 S5        30.00S
MANITOWOC      NOT AVBL
APPLETON       PTCLDY    52  32  46 S7        29.99S
CLINTONVILLE   CLOUDY    57  34  41 S6        29.99S
OSHKOSH        CLEAR     52  36  54 S3        30.00S
$$

WIZ032>034-041-042-053>061-030300-
SOUTHWEST WISCONSIN

CITY           SKY/WX    TMP DP  RH WIND       PRES   REMARKS
LA CROSSE      CLOUDY    57  39  51 S3        30.01S
SPARTA         CLOUDY    52  40  64 CALM      30.02S
VIROQUA        CLOUDY    56  35  43 CALM      30.03R
BOSCOBEL       MOCLDY    54  41  61 CALM      30.02S
PRAIRIE DU CHI CLOUDY    55  40  57 CALM      30.02S
PLATTEVILLE    MOCLDY    53  41  62 SW3       30.02S
$$

WIZ056-057-062-063-064-067-068-030300-
SOUTH CENTRAL WISCONSIN

CITY           SKY/WX    TMP DP  RH WIND       PRES   REMARKS
REEDSBURG      CLOUDY    56  37  47 CALM      30.00S
BARABOO/DELLS  CLOUDY    55  38  51 SE3       30.00S
LONE ROCK      NOT AVBL
MINERAL POINT  CLOUDY    59  32  36 SW5       30.02S
MADISON        PTCLDY    50  36  58 CALM      30.01S
MIDDLETON      CLEAR     51  40  67 W3        30.02S
WATERTOWN      CLEAR     53  36  53 CALM      30.01S
MONROE         PTCLDY    54  36  50 W5        30.02R
JANESVILLE     PTCLDY    54  41  62 CALM      30.02R
$$

WIZ051-052-058>065-066-070>072-030300-
SOUTHEAST WISCONSIN

CITY           SKY/WX    TMP DP  RH WIND       PRES   REMARKS
MILWAUKEE      PTCLDY    47  33  58 CALM      30.03S
WAUKESHA       CLEAR     48  30  49 E9        30.03S
MILWAUKEE/TIMM CLEAR     48  28  46 CALM      30.03S
RACINE         CLEAR     46  34  62 NW3       30.04S
BURLINGTON     CLEAR     47  33  58 CALM      30.03S
KENOSHA        CLEAR     46  33  60 CALM      30.03S
FOND DU LAC    CLEAR     52  36  54 S5        30.01R
SHEBOYGAN      CLEAR     47  36  65 CALM      30.01S
WEST BEND      CLEAR     50  32  50 CALM      30.02S
JUNEAU         CLEAR     52  37  56 SE5       30.02S
$$

LSZ147-162-030300-
LAKE SUPERIOR

STATION/POSITION TIME  TEMP    WIND        PRES    WAVE
                       AIR SEA DIR/SP/G            HT/PER
                 (UTC) (F)     (DEG/KT/KT) (MB)    (FT/S)
W MID LAKE BUOY  0050   42 37  260/  2/  2 1016.3F   0
DEVILS ISLAND    0100   47     110/  5/  5 1015.9S
SAXON HARBOR     0100   49     200/  1/  2 1015.2S
$$

LMZ867-665-643>646-030300-
LAKE MICHIGAN

STATION/POSITION TIME  TEMP    WIND        PRES    WAVE
                       AIR SEA DIR/SP/G            HT/PER
                 (UTC) (F)     (DEG/KT/KT) (MB)    (FT/S)
CHAMBERS ISLAND  0140   50     160/  2/  4 1015.9F
N MID LAKE BUOY  0050   45 39  240/  4/  6 1016.0F   0
NORTHPORT PIER   0100   52     210/  2/  3 1015.9S
ALGOMA LAKESHORE 0115             CALM       N/A
KEWAUNEE LAKESHO 0100   51                 1015.4F
SHEBOYGAN LAKESH 0100   49      20/  2/  2 1017.0R
PORT WASHINGTON  0140   49     150/  2/  3 1017.3S
S MID LAKE BUOY  0050   42 41  310/  2/  4 1016.5F   1/ 3
KENOSHA   LAKESH 0100   47     360/  4/  6 1016.9R
$$

TC  - TEMPERATURE IN CELSIUS
VSB - VISIBILITY IN STATUTE MILES
WCI - WIND CHILL INDEX
HX  - HEAT INDEX





USA.gov is the U.S. government's official web portal to all federal, state and local government web resources and services.